Sacramento, CA

6:59 PM PDT on June 25, 2017 (GMT -0700)
Sacramento Executive

Weather History for KSAC - August, 2012

Change the Weather History Date:

Monday, August 27, 2012

  Actual Average Record
Temperature  
Mean Temperature 72 °F -  
Max Temperature 89 °F 90 °F 103 °F (2001)
Min Temperature 55 °F 58 °F 50 °F (1952)
Degree Days  
Heating Degree Days 0    
Month to date heating degree days 0  
Since 1 June heating degree days 18  
Cooling Degree Days 7    
Month to date cooling degree days 313  
Year to date cooling degree days 969  
Since 1 June cooling degree days 829  
Growing Degree Days 22 (Base 50)    
Moisture  
Dew Point 48 °F    
Average Humidity 51    
Maximum Humidity 86    
Minimum Humidity 16    
Precipitation  
Precipitation 0.00 in 0.00 in 0.03 in (1949)
Month to date precipitation T 0.04  
Year to date precipitation 9.89 11.94  
Since 1 July precipitation 0.03  
Sea Level Pressure  
Sea Level Pressure 29.97 in    
Wind  
Wind Speed 4 mph (South)    
Max Wind Speed 8 mph    
Max Gust Speed 13 mph    
Visibility 10 miles    
Events      
T = Trace of Precipitation, MM = Missing Value Source: NWS Daily Summary

Daily Weather History Graph

Daily Weather History Graph

Search for Another Location

Airport or City:

Trip Planner

Search our weather history database for the weather conditions in past years. The results will help you decide how hot, cold, wet, or windy it might be!

Date:

Astronomy

Aug. 27, 2012 Rise Set
Actual Time 6:31 AM PDT 7:42 PM PDT
Civil Twilight 6:03 AM PDT 8:09 PM PDT
Nautical Twilight 5:31 AM PDT 8:42 PM PDT
Astronomical Twilight 4:57 AM PDT 9:16 PM PDT
Moon 5:04 PM PDT (8/27) 2:23 AM PDT (8/27)
Length of Visible Light 14h 05m
Length of Day
13h 11m
Waxing Gibbous, 83% of the Moon is Illuminated
Aug 27
Waxing Gibbous
Aug 31
Full
Sep 8
Last Quarter
Sep 15
New
Sep 22
First Quarter

Hourly Weather History & Observations

Time (PDT) Temp. Dew Point Humidity Pressure Visibility Wind Dir Wind Speed Gust Speed Precip Events Conditions
12:53 AM 57.9 °F 51.1 °F 78% 29.95 in 10.0 mi SSE 4.6 mph - N/A   Clear
1:53 AM 57.0 °F 51.1 °F 81% 29.95 in 10.0 mi SE 4.6 mph - N/A   Clear
2:53 AM 57.0 °F 51.1 °F 81% 29.96 in 10.0 mi SE 6.9 mph - N/A   Clear
3:53 AM 55.4 °F 50.0 °F 82% 29.97 in 10.0 mi SSE 4.6 mph - N/A   Clear
4:53 AM 55.0 °F 50.0 °F 83% 29.97 in 10.0 mi SSE 3.5 mph - N/A   Clear
5:53 AM 55.0 °F 51.1 °F 86% 29.99 in 10.0 mi SE 4.6 mph - N/A   Clear
6:53 AM 55.0 °F 51.1 °F 86% 30.01 in 10.0 mi SSE 3.5 mph - N/A   Clear
7:53 AM 55.9 °F 51.1 °F 84% 30.02 in 10.0 mi South 5.8 mph - N/A   Clear
8:53 AM 59.0 °F 51.1 °F 75% 30.03 in 10.0 mi Calm Calm - N/A   Clear
9:53 AM 64.0 °F 51.1 °F 63% 30.04 in 10.0 mi Calm Calm - N/A   Clear
10:53 AM 69.1 °F 52.0 °F 54% 30.04 in 10.0 mi Variable 3.5 mph - N/A   Clear
11:53 AM 73.9 °F 51.1 °F 45% 30.03 in 10.0 mi Calm Calm - N/A   Clear
12:53 PM 79.0 °F 48.9 °F 35% 30.01 in 10.0 mi WNW 4.6 mph - N/A   Clear
1:53 PM 82.9 °F 46.0 °F 27% 29.99 in 10.0 mi Variable 5.8 mph - N/A   Clear
2:53 PM 86.0 °F 39.9 °F 20% 29.97 in 10.0 mi Variable 3.5 mph - N/A   Clear
3:53 PM 87.1 °F 36.0 °F 16% 29.95 in 10.0 mi Variable 3.5 mph - N/A   Clear
4:53 PM 89.1 °F 37.9 °F 16% 29.94 in 10.0 mi WNW 3.5 mph - N/A   Clear
5:53 PM 89.1 °F 33.1 °F 14% 29.92 in 10.0 mi NNW 4.6 mph - N/A   Clear
6:53 PM 88.0 °F 34.0 °F 15% 29.91 in 10.0 mi Calm Calm - N/A   Clear
7:53 PM 75.0 °F 46.0 °F 36% 29.91 in 10.0 mi Calm Calm - N/A   Clear
8:53 PM 75.9 °F 51.1 °F 42% 29.92 in 10.0 mi SW 4.6 mph - N/A   Clear
9:53 PM 70.0 °F 53.1 °F 55% 29.93 in 10.0 mi SW 3.5 mph - N/A   Clear
10:53 PM 68.0 °F 53.1 °F 59% 29.93 in 10.0 mi Variable 3.5 mph - N/A   Clear
11:53 PM 66.0 °F 53.1 °F 63% 29.93 in 10.0 mi WSW 3.5 mph - N/A   Clear